User: anonymous   Login
Location: Aciu?a
(46.2833°N, 22.4500°E)
Time: 16:37:09
(UTC+00:00)
Language:

SL-19 R/B - Orbit

View from above orbital plane
View from above orbital plane
View from above satellite
View from above satellite

Ground track
Ground track

The orbit data is extracted from the following two-line orbital elements,

1 36589U 10023B   22023.51220003 -.00000040  00000-0  14790-4 0  9999
2 36589 100.5563 211.9871 0224913 283.3954 134.1585 13.58402555577652
Epoch (UTC): 23 January 2022 12:17:34
Eccentricity: 0.0224913
inclination: 100.5563°
perigee height: 874 km
apogee height: 1208 km
right ascension of ascending node: 211.9871°
argument of perigee: 283.3954°
revolutions per day: 13.58402555
mean anomaly at epoch: 134.1585°
orbit number at epoch: 57765

The dashed part of the orbit path shows where the satellite is in the earth's shadow,  

DLR